TimeCDT,TemperatureF,Dew PointF,Humidity,Sea Level PressureIn,VisibilityMPH,Wind Direction,Wind SpeedMPH,Gust SpeedMPH,PrecipitationIn,Events,Conditions,WindDirDegrees,DateUTC
12:55 AM,37.0,32.0,82,30.20,10.0,Calm,Calm,-,N/A,,Clear,0,2013-05-13 05:55:00
1:55 AM,35.1,32.0,89,30.20,10.0,SSW,4.6,-,N/A,,Clear,210,2013-05-13 06:55:00
2:55 AM,36.0,33.1,89,30.19,10.0,Calm,Calm,-,N/A,,Clear,0,2013-05-13 07:55:00
3:55 AM,34.0,30.9,89,30.19,10.0,SSW,4.6,-,N/A,,Clear,210,2013-05-13 08:55:00
4:55 AM,36.0,30.9,82,30.18,10.0,SSW,3.5,-,N/A,,Clear,210,2013-05-13 09:55:00
5:55 AM,41.0,32.0,70,30.18,10.0,SSW,4.6,-,N/A,,Clear,210,2013-05-13 10:55:00
6:55 AM,46.0,36.0,68,30.19,10.0,SSW,4.6,-,N/A,,Clear,200,2013-05-13 11:55:00
7:55 AM,48.9,37.9,66,30.20,10.0,South,4.6,-,N/A,,Clear,190,2013-05-13 12:55:00
8:55 AM,55.4,37.4,51,30.19,10.0,SSW,8.1,-,N/A,,Clear,200,2013-05-13 13:55:00
9:55 AM,61.0,37.9,42,30.20,10.0,South,8.1,-,N/A,,Clear,190,2013-05-13 14:55:00
10:55 AM,64.9,41.0,42,30.19,10.0,South,10.4,-,N/A,,Clear,170,2013-05-13 15:55:00
11:55 AM,66.0,42.1,42,30.17,10.0,South,6.9,-,N/A,,Clear,170,2013-05-13 16:55:00
12:55 PM,69.1,45.0,42,30.15,10.0,SSW,8.1,-,N/A,,Clear,200,2013-05-13 17:55:00
1:55 PM,71.1,42.1,35,30.12,10.0,South,10.4,-,N/A,,Clear,180,2013-05-13 18:55:00
3:55 PM,73.0,39.9,30,30.07,10.0,SSW,12.7,19.6,N/A,,Clear,200,2013-05-13 20:55:00
4:55 PM,73.0,43.0,34,30.05,10.0,SSW,11.5,18.4,N/A,,Clear,200,2013-05-13 21:55:00
5:55 PM,72.0,46.0,40,30.02,10.0,South,12.7,21.9,N/A,,Clear,190,2013-05-13 22:55:00
6:55 PM,69.8,46.4,43,29.99,10.0,South,9.2,-,N/A,,Clear,180,2013-05-13 23:55:00
7:55 PM,64.9,46.0,50,29.99,10.0,South,9.2,-,N/A,,Clear,180,2013-05-14 00:55:00
8:55 PM,59.0,46.0,62,30.00,10.0,South,5.8,-,N/A,,Clear,180,2013-05-14 01:55:00
9:55 PM,57.9,46.9,67,29.98,10.0,South,8.1,-,N/A,,Clear,180,2013-05-14 02:55:00
10:55 PM,55.9,46.9,72,29.97,10.0,South,6.9,-,N/A,,Clear,180,2013-05-14 03:55:00
11:55 PM,55.9,46.9,72,29.95,10.0,South,6.9,-,N/A,,Clear,180,2013-05-14 04:55:00